Year,Month,Day,Hour,Minute,Value (Times are PST for temperature in C)
2019,06,27,00,00,16.90
2019,06,27,00,01,16.90
2019,06,27,00,02,16.90
2019,06,27,00,03,16.80
2019,06,27,00,04,16.80
2019,06,27,00,05,16.70
2019,06,27,00,06,16.70
2019,06,27,00,07,16.60
2019,06,27,00,08,16.60
2019,06,27,00,09,16.60
2019,06,27,00,10,16.50
2019,06,27,00,11,16.50
2019,06,27,00,12,16.40
2019,06,27,00,13,16.30
2019,06,27,00,14,16.30
2019,06,27,00,15,16.20
2019,06,27,00,16,16.20
2019,06,27,00,17,16.10
2019,06,27,00,18,16.10
2019,06,27,00,19,16.00
2019,06,27,00,20,15.90
2019,06,27,00,21,15.90
2019,06,27,00,22,15.80
2019,06,27,00,23,15.80
2019,06,27,00,24,15.80
2019,06,27,00,25,15.80
2019,06,27,00,26,15.70
2019,06,27,00,27,15.70
2019,06,27,00,28,15.70
2019,06,27,00,29,15.70
2019,06,27,00,30,15.60
2019,06,27,00,31,15.60
2019,06,27,00,32,15.60
2019,06,27,00,33,15.60
2019,06,27,00,34,15.50
2019,06,27,00,35,15.50
2019,06,27,00,36,15.50
2019,06,27,00,37,15.50
2019,06,27,00,38,15.50
2019,06,27,00,39,15.50
2019,06,27,00,40,15.50
2019,06,27,00,41,15.50
2019,06,27,00,42,15.40
2019,06,27,00,43,15.40
2019,06,27,00,44,15.40
2019,06,27,00,45,15.30
2019,06,27,00,46,15.30
2019,06,27,00,47,15.30
2019,06,27,00,48,15.30
2019,06,27,00,49,15.20
2019,06,27,00,50,15.20
2019,06,27,00,51,15.20
2019,06,27,00,52,15.20
2019,06,27,00,53,15.20
2019,06,27,00,54,15.20
2019,06,27,00,55,15.20
2019,06,27,00,56,15.20
2019,06,27,00,57,15.20
2019,06,27,00,58,15.20
2019,06,27,00,59,15.20
2019,06,27,01,00,15.20
2019,06,27,01,01,15.20
2019,06,27,01,02,15.30
2019,06,27,01,03,15.30
2019,06,27,01,04,15.40
2019,06,27,01,05,15.40
2019,06,27,01,06,15.50
2019,06,27,01,07,15.50
2019,06,27,01,08,15.60
2019,06,27,01,09,15.70
2019,06,27,01,10,15.80
2019,06,27,01,11,15.90
2019,06,27,01,12,15.90
2019,06,27,01,13,16.00
2019,06,27,01,14,16.10
2019,06,27,01,15,16.10
2019,06,27,01,16,16.20
2019,06,27,01,17,16.20
2019,06,27,01,18,16.20
2019,06,27,01,19,16.20
2019,06,27,01,20,16.20
2019,06,27,01,21,16.20
2019,06,27,01,22,16.30
2019,06,27,01,23,16.30
2019,06,27,01,24,16.30
2019,06,27,01,25,16.30
2019,06,27,01,26,16.30
2019,06,27,01,27,16.30
2019,06,27,01,28,16.30
2019,06,27,01,29,16.30
2019,06,27,01,30,16.30
2019,06,27,01,31,16.40
2019,06,27,01,32,16.40
2019,06,27,01,33,16.40
2019,06,27,01,34,16.40
2019,06,27,01,35,16.40
2019,06,27,01,36,16.40
2019,06,27,01,37,16.40
2019,06,27,01,38,16.40
2019,06,27,01,39,16.40
2019,06,27,01,40,16.40
2019,06,27,01,41,16.40
2019,06,27,01,42,16.40
2019,06,27,01,43,16.40
2019,06,27,01,44,16.40
2019,06,27,01,45,16.40
2019,06,27,01,46,16.40
2019,06,27,01,47,16.40
2019,06,27,01,48,16.40
2019,06,27,01,49,16.40
2019,06,27,01,50,16.40
2019,06,27,01,51,16.40
2019,06,27,01,52,16.40
2019,06,27,01,53,16.40
2019,06,27,01,54,16.40
2019,06,27,01,55,16.40
2019,06,27,01,56,16.40
2019,06,27,01,57,16.40
2019,06,27,01,58,16.40
2019,06,27,01,59,16.40
2019,06,27,02,00,16.40
2019,06,27,02,01,16.40
2019,06,27,02,02,16.40
2019,06,27,02,03,16.40
2019,06,27,02,04,16.40
2019,06,27,02,05,16.40
2019,06,27,02,06,16.40
2019,06,27,02,07,16.40
2019,06,27,02,08,16.40
2019,06,27,02,09,16.40
2019,06,27,02,10,16.40
2019,06,27,02,11,16.40
2019,06,27,02,12,16.40
2019,06,27,02,13,16.40
2019,06,27,02,14,16.40
2019,06,27,02,15,16.40
2019,06,27,02,16,16.40
2019,06,27,02,17,16.40
2019,06,27,02,18,16.40
2019,06,27,02,19,16.40
2019,06,27,02,20,16.40
2019,06,27,02,21,16.40
2019,06,27,02,22,16.50
2019,06,27,02,23,16.50
2019,06,27,02,24,16.40
2019,06,27,02,25,16.40
2019,06,27,02,26,16.40
2019,06,27,02,27,16.40
2019,06,27,02,28,16.40
2019,06,27,02,29,16.40
2019,06,27,02,30,16.40
2019,06,27,02,31,16.40
2019,06,27,02,32,16.40
2019,06,27,02,33,16.30
2019,06,27,02,34,16.30
2019,06,27,02,35,16.30
2019,06,27,02,36,16.30
2019,06,27,02,37,16.30
2019,06,27,02,38,16.20
2019,06,27,02,39,16.20
2019,06,27,02,40,16.20
2019,06,27,02,41,16.20
2019,06,27,02,42,16.20
2019,06,27,02,43,16.20
2019,06,27,02,44,16.20
2019,06,27,02,45,16.30
2019,06,27,02,46,16.30
2019,06,27,02,47,16.30
2019,06,27,02,48,16.40
2019,06,27,02,49,16.40
2019,06,27,02,50,16.50
2019,06,27,02,51,16.50
2019,06,27,02,52,16.50
2019,06,27,02,53,16.40
2019,06,27,02,54,16.40
2019,06,27,02,55,16.40
2019,06,27,02,56,16.40
2019,06,27,02,57,16.40
2019,06,27,02,58,16.40
2019,06,27,02,59,16.40
2019,06,27,03,00,16.50
2019,06,27,03,01,16.50
2019,06,27,03,02,16.50
2019,06,27,03,03,16.50
2019,06,27,03,04,16.50
2019,06,27,03,05,16.60
2019,06,27,03,06,16.60
2019,06,27,03,07,16.60
2019,06,27,03,08,16.60
2019,06,27,03,09,16.60
2019,06,27,03,10,16.60
2019,06,27,03,11,16.60
2019,06,27,03,12,16.60
2019,06,27,03,13,16.60
2019,06,27,03,14,16.60
2019,06,27,03,15,16.60
2019,06,27,03,16,16.60
2019,06,27,03,17,16.60
2019,06,27,03,18,16.60
2019,06,27,03,19,16.60
2019,06,27,03,20,16.60
2019,06,27,03,21,16.50
2019,06,27,03,22,16.50
2019,06,27,03,23,16.50
2019,06,27,03,24,16.50
2019,06,27,03,25,16.40
2019,06,27,03,26,16.40
2019,06,27,03,27,16.40
2019,06,27,03,28,16.30
2019,06,27,03,29,16.30
2019,06,27,03,30,16.30
2019,06,27,03,31,16.20
2019,06,27,03,32,16.20
2019,06,27,03,33,16.20
2019,06,27,03,34,16.10
2019,06,27,03,35,16.10
2019,06,27,03,36,16.00
2019,06,27,03,37,16.00
2019,06,27,03,38,15.90
2019,06,27,03,39,15.90
2019,06,27,03,40,15.80
2019,06,27,03,41,15.80
2019,06,27,03,42,15.80
2019,06,27,03,43,15.70
2019,06,27,03,44,15.70
2019,06,27,03,45,15.70
2019,06,27,03,46,15.70
2019,06,27,03,47,15.70
2019,06,27,03,48,15.60
2019,06,27,03,49,15.60
2019,06,27,03,50,15.60
2019,06,27,03,51,15.60
2019,06,27,03,52,15.60
2019,06,27,03,53,15.50
2019,06,27,03,54,15.50
2019,06,27,03,55,15.50
2019,06,27,03,56,15.50
2019,06,27,03,57,15.50
2019,06,27,03,58,15.50
2019,06,27,03,59,15.50
2019,06,27,04,00,15.40
2019,06,27,04,01,15.40
2019,06,27,04,02,15.40
2019,06,27,04,03,15.40
2019,06,27,04,04,15.40
2019,06,27,04,05,15.40
2019,06,27,04,06,15.40
2019,06,27,04,07,15.30
2019,06,27,04,08,15.30
2019,06,27,04,09,15.30
2019,06,27,04,10,15.30
2019,06,27,04,11,15.30
2019,06,27,04,12,15.30
2019,06,27,04,13,15.30
2019,06,27,04,14,15.30
2019,06,27,04,15,15.30
2019,06,27,04,16,15.20
2019,06,27,04,17,15.20
2019,06,27,04,18,15.20
2019,06,27,04,19,15.20
2019,06,27,04,20,15.20
2019,06,27,04,21,15.20
2019,06,27,04,22,15.20
2019,06,27,04,23,15.20
2019,06,27,04,24,15.20
2019,06,27,04,25,15.20
2019,06,27,04,26,15.20
2019,06,27,04,27,15.20
2019,06,27,04,28,15.20
2019,06,27,04,29,15.20
2019,06,27,04,30,15.20
2019,06,27,04,31,15.20
2019,06,27,04,32,15.20
2019,06,27,04,33,15.10
2019,06,27,04,34,15.10
2019,06,27,04,35,15.10
2019,06,27,04,36,15.10
2019,06,27,04,37,15.10
2019,06,27,04,38,15.10
2019,06,27,04,39,15.10
2019,06,27,04,40,15.10
2019,06,27,04,41,15.00
2019,06,27,04,42,15.00
2019,06,27,04,43,15.00
2019,06,27,04,44,15.00
2019,06,27,04,45,15.00
2019,06,27,04,46,14.90
2019,06,27,04,47,14.90
2019,06,27,04,48,14.90
2019,06,27,04,49,14.90
2019,06,27,04,50,14.90
2019,06,27,04,51,14.80
2019,06,27,04,52,14.80
2019,06,27,04,53,14.80
2019,06,27,04,54,14.80
2019,06,27,04,55,14.80
2019,06,27,04,56,14.80
2019,06,27,04,57,14.70
2019,06,27,04,58,14.70
2019,06,27,04,59,14.70
2019,06,27,05,00,14.70
2019,06,27,05,01,14.70
2019,06,27,05,02,14.70
2019,06,27,05,03,14.70
2019,06,27,05,04,14.70
2019,06,27,05,05,14.60
2019,06,27,05,06,14.60
2019,06,27,05,07,14.60
2019,06,27,05,08,14.60
2019,06,27,05,09,14.60
2019,06,27,05,10,14.60
2019,06,27,05,11,14.60
2019,06,27,05,12,14.60
2019,06,27,05,13,14.60
2019,06,27,05,14,14.60
2019,06,27,05,15,14.50
2019,06,27,05,16,14.50
2019,06,27,05,17,14.50
2019,06,27,05,18,14.50
2019,06,27,05,19,14.40
2019,06,27,05,20,14.40
2019,06,27,05,21,14.40
2019,06,27,05,22,14.30
2019,06,27,05,23,14.30
2019,06,27,05,24,14.30
2019,06,27,05,25,14.30
2019,06,27,05,26,14.30
2019,06,27,05,27,14.30
2019,06,27,05,28,14.30
2019,06,27,05,29,14.20
2019,06,27,05,30,14.20
2019,06,27,05,31,14.20
2019,06,27,05,32,14.20
2019,06,27,05,33,14.20
2019,06,27,05,34,14.20
2019,06,27,05,35,14.20
2019,06,27,05,36,14.20
2019,06,27,05,37,14.10
2019,06,27,05,38,14.10
2019,06,27,05,39,14.10
2019,06,27,05,40,14.10
2019,06,27,05,41,14.10
2019,06,27,05,42,14.00
2019,06,27,05,43,14.00
2019,06,27,05,44,14.00
2019,06,27,05,45,14.00
2019,06,27,05,46,14.00
2019,06,27,05,47,14.00
2019,06,27,05,48,13.90
2019,06,27,05,49,13.90
2019,06,27,05,50,13.90
2019,06,27,05,51,13.90
2019,06,27,05,52,13.90
2019,06,27,05,53,13.90
2019,06,27,05,54,13.90
2019,06,27,05,55,13.90
2019,06,27,05,56,13.90
2019,06,27,05,57,13.90
2019,06,27,05,58,13.90
2019,06,27,05,59,13.90
2019,06,27,06,00,13.90
2019,06,27,06,01,13.90
2019,06,27,06,02,13.90
2019,06,27,06,03,13.90
2019,06,27,06,04,13.90
2019,06,27,06,05,13.90
2019,06,27,06,06,13.90
2019,06,27,06,07,13.90
2019,06,27,06,08,14.00
2019,06,27,06,09,14.00
2019,06,27,06,10,14.00
2019,06,27,06,11,14.00
2019,06,27,06,12,14.10
2019,06,27,06,13,14.10
2019,06,27,06,14,14.10
2019,06,27,06,15,14.10
2019,06,27,06,16,14.10
2019,06,27,06,17,14.10
2019,06,27,06,18,14.10
2019,06,27,06,19,14.20
2019,06,27,06,20,14.20
2019,06,27,06,21,14.20
2019,06,27,06,22,14.20
2019,06,27,06,23,14.20
2019,06,27,06,24,14.20
2019,06,27,06,25,14.30
2019,06,27,06,26,14.30
2019,06,27,06,27,14.30
2019,06,27,06,28,14.40
2019,06,27,06,29,14.50
2019,06,27,06,30,14.60
2019,06,27,06,31,14.70
2019,06,27,06,32,14.80
2019,06,27,06,33,14.80
2019,06,27,06,34,14.90
2019,06,27,06,35,14.90
2019,06,27,06,36,15.00
2019,06,27,06,37,15.00
2019,06,27,06,38,15.10
2019,06,27,06,39,15.10
2019,06,27,06,40,15.20
2019,06,27,06,41,15.20
2019,06,27,06,42,15.20
2019,06,27,06,43,15.20
2019,06,27,06,44,15.30
2019,06,27,06,45,15.30
2019,06,27,06,46,15.30
2019,06,27,06,47,15.30
2019,06,27,06,48,15.40
2019,06,27,06,49,15.40
2019,06,27,06,50,15.40
2019,06,27,06,51,15.50
2019,06,27,06,52,15.50
2019,06,27,06,53,15.50
2019,06,27,06,54,15.60
2019,06,27,06,55,15.60
2019,06,27,06,56,15.60
2019,06,27,06,57,15.60
2019,06,27,06,58,15.60
2019,06,27,06,59,15.60
2019,06,27,07,00,15.70
2019,06,27,07,01,15.70
2019,06,27,07,02,15.70
2019,06,27,07,03,15.70
2019,06,27,07,04,15.70
2019,06,27,07,05,15.70
2019,06,27,07,06,15.70
2019,06,27,07,07,15.70
2019,06,27,07,08,15.70
2019,06,27,07,09,15.70
2019,06,27,07,10,15.70
2019,06,27,07,11,15.70
2019,06,27,07,12,15.70
2019,06,27,07,13,15.70
2019,06,27,07,14,15.70
2019,06,27,07,15,15.70
2019,06,27,07,16,15.70
2019,06,27,07,17,15.80
2019,06,27,07,18,15.80
2019,06,27,07,19,15.80
2019,06,27,07,20,15.80
2019,06,27,07,21,15.80
2019,06,27,07,22,15.80
2019,06,27,07,23,15.80
2019,06,27,07,24,15.80
2019,06,27,07,25,15.80
2019,06,27,07,26,15.80
2019,06,27,07,27,15.80
2019,06,27,07,28,15.80
2019,06,27,07,29,15.80
2019,06,27,07,30,15.80
2019,06,27,07,31,15.80
2019,06,27,07,32,15.80
2019,06,27,07,33,15.80
2019,06,27,07,34,15.80
2019,06,27,07,35,15.80
2019,06,27,07,36,15.80
2019,06,27,07,37,15.90
2019,06,27,07,38,15.80
2019,06,27,07,39,15.80
2019,06,27,07,40,15.80
2019,06,27,07,41,15.80
2019,06,27,07,42,15.80
2019,06,27,07,43,15.80
2019,06,27,07,44,15.80
2019,06,27,07,45,15.80
2019,06,27,07,46,15.80
2019,06,27,07,47,15.80
2019,06,27,07,48,15.80
2019,06,27,07,49,15.80
2019,06,27,07,50,15.80
2019,06,27,07,51,15.80
2019,06,27,07,52,15.80
2019,06,27,07,53,15.80
2019,06,27,07,54,15.80
2019,06,27,07,55,15.80
2019,06,27,07,56,15.80
2019,06,27,07,57,15.80
2019,06,27,07,58,15.80
2019,06,27,07,59,15.80
2019,06,27,08,00,15.80
2019,06,27,08,01,15.80
2019,06,27,08,02,15.80
2019,06,27,08,03,15.80
2019,06,27,08,04,15.80
2019,06,27,08,05,15.80
2019,06,27,08,06,15.80
2019,06,27,08,07,15.80
2019,06,27,08,08,15.80
2019,06,27,08,09,15.80
2019,06,27,08,10,15.70
2019,06,27,08,11,15.70
2019,06,27,08,12,15.70
2019,06,27,08,13,15.70
2019,06,27,08,14,15.60
2019,06,27,08,15,15.60
2019,06,27,08,16,15.60
2019,06,27,08,17,15.60
2019,06,27,08,18,15.60
2019,06,27,08,19,15.60
2019,06,27,08,20,15.60
2019,06,27,08,21,15.60
2019,06,27,08,22,15.60
2019,06,27,08,23,15.50
2019,06,27,08,24,15.50
2019,06,27,08,25,15.50
2019,06,27,08,26,15.50
2019,06,27,08,27,15.40
2019,06,27,08,28,15.40
2019,06,27,08,29,15.40
2019,06,27,08,30,15.40
2019,06,27,08,31,15.40
2019,06,27,08,32,15.30
2019,06,27,08,33,15.30
2019,06,27,08,34,15.30
2019,06,27,08,35,15.30
2019,06,27,08,36,15.30
2019,06,27,08,37,15.20
2019,06,27,08,38,15.20
2019,06,27,08,39,15.20
2019,06,27,08,40,15.20
2019,06,27,08,41,15.20
2019,06,27,08,42,15.20
2019,06,27,08,43,15.20
2019,06,27,08,44,15.20
2019,06,27,08,45,15.20
2019,06,27,08,46,15.20
2019,06,27,08,47,15.20
2019,06,27,08,48,15.20
2019,06,27,08,49,15.20
2019,06,27,08,50,15.10
2019,06,27,08,51,15.10
2019,06,27,08,52,15.10
2019,06,27,08,53,15.10
2019,06,27,08,54,15.10
2019,06,27,08,55,15.10
2019,06,27,08,56,15.10
2019,06,27,08,57,15.10
2019,06,27,08,58,15.10
2019,06,27,08,59,15.10
2019,06,27,09,00,15.10
2019,06,27,09,01,15.10
2019,06,27,09,02,15.10
2019,06,27,09,03,15.00
2019,06,27,09,04,15.00
2019,06,27,09,05,15.00
2019,06,27,09,06,15.00
2019,06,27,09,07,15.00
2019,06,27,09,08,14.90
2019,06,27,09,09,14.90
2019,06,27,09,10,14.90
2019,06,27,09,11,14.90
2019,06,27,09,12,14.80
2019,06,27,09,13,14.80
2019,06,27,09,14,14.80
2019,06,27,09,15,14.80
2019,06,27,09,16,14.80
2019,06,27,09,17,14.80
2019,06,27,09,18,14.70
2019,06,27,09,19,14.70
2019,06,27,09,20,14.70
2019,06,27,09,21,14.70
2019,06,27,09,22,14.70
2019,06,27,09,23,14.70
2019,06,27,09,24,14.70
2019,06,27,09,25,14.60
2019,06,27,09,26,14.60
2019,06,27,09,27,14.60
2019,06,27,09,28,14.60
2019,06,27,09,29,14.60
2019,06,27,09,30,14.60
2019,06,27,09,31,14.60
2019,06,27,09,32,14.60
2019,06,27,09,33,14.50
2019,06,27,09,34,14.50
2019,06,27,09,35,14.50
2019,06,27,09,36,14.50
2019,06,27,09,37,14.50
2019,06,27,09,38,14.40
2019,06,27,09,39,14.40
2019,06,27,09,40,14.40
2019,06,27,09,41,14.40
2019,06,27,09,42,14.40
2019,06,27,09,43,14.40
2019,06,27,09,44,14.40
2019,06,27,09,45,14.40
2019,06,27,09,46,14.40
2019,06,27,09,47,14.40
2019,06,27,09,48,14.40
2019,06,27,09,49,14.40
2019,06,27,09,50,14.40
2019,06,27,09,51,14.40
2019,06,27,09,52,14.40
2019,06,27,09,53,14.40
2019,06,27,09,54,14.40
2019,06,27,09,55,14.40
2019,06,27,09,56,14.40
2019,06,27,09,57,14.40
2019,06,27,09,58,14.40
2019,06,27,09,59,14.40
2019,06,27,10,00,14.40
2019,06,27,10,01,14.40
2019,06,27,10,02,14.40
2019,06,27,10,03,14.40
2019,06,27,10,04,14.40
2019,06,27,10,05,14.40
2019,06,27,10,06,14.40
2019,06,27,10,07,14.40
2019,06,27,10,08,14.40
2019,06,27,10,09,14.40
2019,06,27,10,10,14.40
2019,06,27,10,11,14.30
2019,06,27,10,12,14.30
2019,06,27,10,13,14.30
2019,06,27,10,14,14.30
2019,06,27,10,15,14.20
2019,06,27,10,16,14.20
2019,06,27,10,17,14.20
2019,06,27,10,18,14.20
2019,06,27,10,19,14.10
2019,06,27,10,20,14.10
2019,06,27,10,21,14.10
2019,06,27,10,22,14.10
2019,06,27,10,23,14.10
2019,06,27,10,24,14.10
2019,06,27,10,25,14.10
2019,06,27,10,26,14.10
2019,06,27,10,27,14.10
2019,06,27,10,28,14.10
2019,06,27,10,29,14.10
2019,06,27,10,30,14.10
2019,06,27,10,31,14.10
2019,06,27,10,32,14.10
2019,06,27,10,33,14.10
2019,06,27,10,34,14.10
2019,06,27,10,35,14.10
2019,06,27,10,36,14.10
2019,06,27,10,37,14.10
2019,06,27,10,38,14.10
2019,06,27,10,39,14.10
2019,06,27,10,40,14.10
2019,06,27,10,41,14.10
2019,06,27,10,42,14.10
2019,06,27,10,43,14.10
2019,06,27,10,44,14.10
2019,06,27,10,45,14.10
2019,06,27,10,46,14.10
2019,06,27,10,47,14.10
2019,06,27,10,48,14.10
2019,06,27,10,49,14.10
2019,06,27,10,50,14.10
2019,06,27,10,51,14.20
2019,06,27,10,52,14.20
2019,06,27,10,53,14.20
2019,06,27,10,54,14.20
2019,06,27,10,55,14.20
2019,06,27,10,56,14.20
2019,06,27,10,57,14.20
2019,06,27,10,58,14.20
2019,06,27,10,59,14.20
2019,06,27,11,00,14.20
2019,06,27,11,01,14.20
2019,06,27,11,02,14.20
2019,06,27,11,03,14.30
2019,06,27,11,04,14.30
2019,06,27,11,05,14.30
2019,06,27,11,06,14.30
2019,06,27,11,07,14.30
2019,06,27,11,08,14.30
2019,06,27,11,09,14.30
2019,06,27,11,10,14.30
2019,06,27,11,11,14.40
2019,06,27,11,12,14.40
2019,06,27,11,13,14.40
2019,06,27,11,14,14.40
2019,06,27,11,15,14.40
2019,06,27,11,16,14.40
2019,06,27,11,17,14.40
2019,06,27,11,18,14.50
2019,06,27,11,19,14.50
2019,06,27,11,20,14.50
2019,06,27,11,21,14.50
2019,06,27,11,22,14.50
2019,06,27,11,23,14.60
2019,06,27,11,24,14.60
2019,06,27,11,25,14.60
2019,06,27,11,26,14.60
2019,06,27,11,27,14.70
2019,06,27,11,28,14.70
2019,06,27,11,29,14.70
2019,06,27,11,30,14.70
2019,06,27,11,31,14.70
2019,06,27,11,32,14.70
2019,06,27,11,33,14.80
2019,06,27,11,34,14.70
2019,06,27,11,35,14.70
2019,06,27,11,36,14.70
2019,06,27,11,37,14.70
2019,06,27,11,38,14.70
2019,06,27,11,39,14.70
2019,06,27,11,40,14.70
2019,06,27,11,41,14.70
2019,06,27,11,42,14.80
2019,06,27,11,43,14.80
2019,06,27,11,44,14.80
2019,06,27,11,45,14.80
2019,06,27,11,46,14.80
2019,06,27,11,47,14.80
2019,06,27,11,48,14.80
2019,06,27,11,49,14.90
2019,06,27,11,50,14.90
2019,06,27,11,51,14.90
2019,06,27,11,52,14.90
2019,06,27,11,53,14.90
2019,06,27,11,54,14.90
2019,06,27,11,55,14.90
2019,06,27,11,56,14.90
2019,06,27,11,57,14.90
2019,06,27,11,58,14.90
2019,06,27,11,59,14.90
2019,06,27,12,00,14.80
2019,06,27,12,01,14.80
2019,06,27,12,02,14.80
2019,06,27,12,03,14.80
2019,06,27,12,04,14.90
2019,06,27,12,05,14.90
2019,06,27,12,06,14.90
2019,06,27,12,07,14.90
2019,06,27,12,08,15.00
2019,06,27,12,09,15.00
2019,06,27,12,10,15.00
2019,06,27,12,11,15.10
2019,06,27,12,12,15.10
2019,06,27,12,13,15.10
2019,06,27,12,14,15.10
2019,06,27,12,15,15.10
2019,06,27,12,16,15.10
2019,06,27,12,17,15.10
2019,06,27,12,18,15.10
2019,06,27,12,19,15.20
2019,06,27,12,20,15.20
2019,06,27,12,21,15.20
2019,06,27,12,22,15.30
2019,06,27,12,23,15.30
2019,06,27,12,24,15.30
2019,06,27,12,25,15.30
2019,06,27,12,26,15.30
2019,06,27,12,27,15.30
2019,06,27,12,28,15.30
2019,06,27,12,29,15.30
2019,06,27,12,30,15.30
2019,06,27,12,31,15.30
2019,06,27,12,32,15.30
2019,06,27,12,33,15.40
2019,06,27,12,34,15.40
2019,06,27,12,35,15.40
2019,06,27,12,36,15.40
2019,06,27,12,37,15.40
2019,06,27,12,38,15.40
2019,06,27,12,39,15.40
2019,06,27,12,40,15.40
2019,06,27,12,41,15.40
2019,06,27,12,42,15.40
2019,06,27,12,43,15.40
2019,06,27,12,44,15.50
2019,06,27,12,45,15.50
2019,06,27,12,46,15.50
2019,06,27,12,47,15.40
2019,06,27,12,48,15.40
2019,06,27,12,49,15.40
2019,06,27,12,50,15.40
2019,06,27,12,51,15.40
2019,06,27,12,52,15.40
2019,06,27,12,53,15.40
2019,06,27,12,54,15.40
2019,06,27,12,55,15.40
2019,06,27,12,56,15.40
2019,06,27,12,57,15.40
2019,06,27,12,58,15.40
2019,06,27,12,59,15.50
2019,06,27,13,00,15.50
2019,06,27,13,01,15.50
2019,06,27,13,02,15.40
2019,06,27,13,03,15.40
2019,06,27,13,04,15.40
2019,06,27,13,05,15.40
2019,06,27,13,06,15.40
2019,06,27,13,07,15.40
2019,06,27,13,08,15.40
2019,06,27,13,09,15.50
2019,06,27,13,10,15.50
2019,06,27,13,11,15.40
2019,06,27,13,12,15.40
2019,06,27,13,13,15.50
2019,06,27,13,14,15.50
2019,06,27,13,15,15.50
2019,06,27,13,16,15.50
2019,06,27,13,17,15.50
2019,06,27,13,18,15.50
2019,06,27,13,19,15.50
2019,06,27,13,20,15.50
2019,06,27,13,21,15.50
2019,06,27,13,22,15.50
2019,06,27,13,23,15.50
2019,06,27,13,24,15.60
2019,06,27,13,25,15.60
2019,06,27,13,26,15.60
2019,06,27,13,27,15.60
2019,06,27,13,28,15.60
2019,06,27,13,29,15.60
2019,06,27,13,30,15.70
2019,06,27,13,31,15.70
2019,06,27,13,32,15.70
2019,06,27,13,33,15.70
2019,06,27,13,34,15.70
2019,06,27,13,35,15.80
2019,06,27,13,36,15.80
2019,06,27,13,37,15.80
2019,06,27,13,38,15.90
2019,06,27,13,39,15.90
2019,06,27,13,40,16.00
2019,06,27,13,41,16.00
2019,06,27,13,42,16.10
2019,06,27,13,43,16.10
2019,06,27,13,44,16.10
2019,06,27,13,45,16.10
2019,06,27,13,46,16.10
2019,06,27,13,47,16.10
2019,06,27,13,48,16.10
2019,06,27,13,49,16.10
2019,06,27,13,50,16.10
2019,06,27,13,51,16.10
2019,06,27,13,52,16.10
2019,06,27,13,53,16.10
2019,06,27,13,54,16.10
2019,06,27,13,55,16.10
2019,06,27,13,56,16.10
2019,06,27,13,57,16.10
2019,06,27,13,58,16.10
2019,06,27,13,59,16.10
2019,06,27,14,00,16.10
2019,06,27,14,01,16.10
2019,06,27,14,02,16.10
2019,06,27,14,03,16.10
2019,06,27,14,04,16.20
2019,06,27,14,05,16.20
2019,06,27,14,06,16.20
2019,06,27,14,07,16.30
2019,06,27,14,08,16.30
2019,06,27,14,09,16.30
2019,06,27,14,10,16.30
2019,06,27,14,11,16.30
2019,06,27,14,12,16.40
2019,06,27,14,13,16.40
2019,06,27,14,14,16.50
2019,06,27,14,15,16.50
2019,06,27,14,16,16.60
2019,06,27,14,17,16.60
2019,06,27,14,18,16.60
2019,06,27,14,19,16.70
2019,06,27,14,20,16.70
2019,06,27,14,21,16.70
2019,06,27,14,22,16.70
2019,06,27,14,23,16.70
2019,06,27,14,24,16.70
2019,06,27,14,25,16.70
2019,06,27,14,26,16.80
2019,06,27,14,27,16.80
2019,06,27,14,28,16.80
2019,06,27,14,29,16.70
2019,06,27,14,30,16.70
2019,06,27,14,31,16.70
2019,06,27,14,32,16.70
2019,06,27,14,33,16.70
2019,06,27,14,34,16.60
2019,06,27,14,35,16.60
2019,06,27,14,36,16.60
2019,06,27,14,37,16.60
2019,06,27,14,38,16.60
2019,06,27,14,39,16.60
2019,06,27,14,40,16.60
2019,06,27,14,41,16.60
2019,06,27,14,42,16.60
2019,06,27,14,43,16.60
2019,06,27,14,44,16.60
2019,06,27,14,45,16.60
2019,06,27,14,46,16.60
2019,06,27,14,47,16.60
2019,06,27,14,48,16.70
2019,06,27,14,49,16.70
2019,06,27,14,50,16.70
2019,06,27,14,51,16.70
2019,06,27,14,52,16.70
2019,06,27,14,53,16.70
2019,06,27,14,54,16.70
2019,06,27,14,55,16.70
2019,06,27,14,56,16.70
2019,06,27,14,57,16.70
2019,06,27,14,58,16.80
2019,06,27,14,59,16.80
2019,06,27,15,00,16.80
2019,06,27,15,01,16.90
2019,06,27,15,02,16.90
2019,06,27,15,03,16.90
2019,06,27,15,04,16.90
2019,06,27,15,05,16.90
2019,06,27,15,06,16.90
2019,06,27,15,07,16.80
2019,06,27,15,08,16.80
2019,06,27,15,09,16.80
2019,06,27,15,10,16.80
2019,06,27,15,11,16.80
2019,06,27,15,12,16.70
2019,06,27,15,13,16.70
2019,06,27,15,14,16.70
2019,06,27,15,15,16.70
2019,06,27,15,16,16.70
2019,06,27,15,17,16.70
2019,06,27,15,18,16.80
2019,06,27,15,19,16.70
2019,06,27,15,20,16.70
2019,06,27,15,21,16.80
2019,06,27,15,22,16.80
2019,06,27,15,23,16.80
2019,06,27,15,24,16.90
2019,06,27,15,25,16.90
2019,06,27,15,26,16.90
2019,06,27,15,27,16.90
2019,06,27,15,28,17.00
2019,06,27,15,29,17.00
2019,06,27,15,30,17.00
2019,06,27,15,31,17.00
2019,06,27,15,32,16.90
2019,06,27,15,33,16.90
2019,06,27,15,34,16.90
2019,06,27,15,35,17.00
2019,06,27,15,36,16.90
2019,06,27,15,37,16.90
2019,06,27,15,38,16.90
2019,06,27,15,39,16.90
2019,06,27,15,40,16.90
2019,06,27,15,41,16.80
2019,06,27,15,42,16.80
2019,06,27,15,43,16.80
2019,06,27,15,44,16.70
2019,06,27,15,45,16.70
2019,06,27,15,46,16.70
2019,06,27,15,47,16.70
2019,06,27,15,48,16.60
2019,06,27,15,49,16.60
2019,06,27,15,50,16.60
2019,06,27,15,51,16.60
2019,06,27,15,52,16.60
2019,06,27,15,53,16.60
2019,06,27,15,54,16.60
2019,06,27,15,55,16.60
2019,06,27,15,56,16.50
2019,06,27,15,57,16.50
2019,06,27,15,58,16.50
2019,06,27,15,59,16.50
2019,06,27,16,00,16.50
2019,06,27,16,01,16.50
2019,06,27,16,02,16.50
2019,06,27,16,03,16.40
2019,06,27,16,04,16.50
2019,06,27,16,05,16.50
2019,06,27,16,06,16.50
2019,06,27,16,07,16.50
2019,06,27,16,08,16.50
2019,06,27,16,09,16.60
2019,06,27,16,10,16.60
2019,06,27,16,11,16.60
2019,06,27,16,12,16.60
2019,06,27,16,13,16.70
2019,06,27,16,14,16.70
2019,06,27,16,15,16.70
2019,06,27,16,16,16.70
2019,06,27,16,17,16.70
2019,06,27,16,18,16.80
2019,06,27,16,19,16.80
2019,06,27,16,20,16.80
2019,06,27,16,21,16.90
2019,06,27,16,22,16.90
2019,06,27,16,23,17.00
2019,06,27,16,24,17.00
2019,06,27,16,25,17.10
2019,06,27,16,26,17.10
2019,06,27,16,27,17.10
2019,06,27,16,28,17.20
2019,06,27,16,29,17.20
2019,06,27,16,30,17.30
2019,06,27,16,31,17.30
2019,06,27,16,32,17.40
2019,06,27,16,33,17.40
2019,06,27,16,34,17.40
2019,06,27,16,35,17.50
2019,06,27,16,36,17.50
2019,06,27,16,37,17.50
2019,06,27,16,38,17.50
2019,06,27,16,39,17.50
2019,06,27,16,40,17.50
2019,06,27,16,41,17.50
2019,06,27,16,42,17.50
2019,06,27,16,43,17.50
2019,06,27,16,44,17.50
2019,06,27,16,45,17.50
2019,06,27,16,46,17.40
2019,06,27,16,47,17.40
2019,06,27,16,48,17.50
2019,06,27,16,49,17.50
2019,06,27,16,50,17.50
2019,06,27,16,51,17.50
2019,06,27,16,52,17.50
2019,06,27,16,53,17.50
2019,06,27,16,54,17.50
2019,06,27,16,55,17.50
2019,06,27,16,56,17.50
2019,06,27,16,57,17.50
2019,06,27,16,58,17.50
2019,06,27,16,59,17.50
2019,06,27,17,00,17.50
2019,06,27,17,01,17.50
2019,06,27,17,02,17.50
2019,06,27,17,03,17.50
2019,06,27,17,04,17.50
2019,06,27,17,05,17.50
2019,06,27,17,06,17.50
2019,06,27,17,07,17.50
2019,06,27,17,08,17.50
2019,06,27,17,09,17.50
2019,06,27,17,10,17.50
2019,06,27,17,11,17.50
2019,06,27,17,12,17.50
2019,06,27,17,13,17.50
2019,06,27,17,14,17.50
2019,06,27,17,15,17.50
2019,06,27,17,16,17.50
2019,06,27,17,17,17.50
2019,06,27,17,18,17.50
2019,06,27,17,19,17.50